Tracking 25963 objects as of 12-Aug-2022
HD Live streaming from Space Station
objects crossing your sky now

OBJECT T

Track OBJECT T now!
10-day predictions


NORAD ID: 51841
Int'l Code: 2022-019T
Perigee: 528.6 km
Apogee: 552.5 km
Inclination: 97.5 °
Period: 95.3 minutes
Semi major axis: 6911 km
RCS: Unknown
Launch date: February 27, 2022
Source: People's Republic of China (PRC)
Launch site: Wenchang Satellite Launch Center (WSC)
aabbcc
Your satellite tracking list
Your tracking list is empty




NASA's NSSDC Master Catalog

Two Line Element Set (TLE):
1 51841U 22019T   22224.39342456  .00003198  00000-0  19521-3 0  9993
2 51841  97.5088 298.1322 0017284  58.2289  72.0769 15.10906316 25090
Source of the keplerian elements: AFSPC